Tracking 28790 objects as of 19-Apr-2024
HD Live streaming from Space Station
objects crossing your sky now

SS-18 R/B

Track SS-18 R/B now!
10-day predictions


NORAD ID: 25695
Int'l Code: 1999-021C
Perigee: 603.5 km
Apogee: 1,391.9 km
Inclination: 64.6 °
Period: 104.9 minutes
Semi major axis: 7368 km
RCS: 9.8049 m2 (large)
Launch date: April 21, 1999
Source: Commonwealth of Independent States (former USSR) (CIS)
Launch site: TYURATAM MISSILE AND SPACE COMPLEX (TTMTR)

Note: This is a ROCKET BODY
Your satellite tracking list
Your tracking list is empty




NASA's NSSDC Master Catalog

Two Line Element Set (TLE):
1 25695U 99021C   24109.95992450  .00000248  00000-0  13735-3 0  9993
2 25695  64.5589  48.4502 0534931 138.0802 226.2521 13.72508466251635
Source of the keplerian elements: AFSPC